Weather Roundup
Issued by NWS Chicago, IL

Home | Current Version | Previous Version | Graphics & Text | Print | Product List | Glossary On
Versions: 1 2 3 4 5 6 7 8 9 10 11 12 13 14 15 16 17 18 19 20 21 22 23 24 25 26 27 28 29 30 31 32 33 34 35 36 37 38 39 40 41 42 43 44 45 46 47 48 49 50
000
NZUS59 KLOT 041506
HRRLOT

CHICAGO AREA WEATHER ROUNDUP
NATIONAL WEATHER SERVICE CHICAGO/ROMEOVILLE IL
1000 AM CDT SAT JUL 04 2015

NOTE: "FAIR" INDICATES FEW OR NO CLOUDS BELOW 12,000 FEET WITH NO
SIGNIFICANT WEATHER AND/OR OBSTRUCTIONS TO VISIBILITY.

* THESE STATIONS ARE NOT UNDER NWS QUALITY CONTROL. THEY ALSO MAY NOT
  REPORT WEATHER SUCH AS PRECIPITATION OR FOG.

ILZ005-006-012>014-019>023-041600-
NORTHEAST ILLINOIS

CITY           SKY/WX    TMP DP  RH WIND       PRES   REMARKS
OHARE          SUNNY     73  55  53 W6        30.00R
MIDWAY         SUNNY     76  55  48 NW3       30.00R
AURORA         SUNNY     73  57  57 W5        30.02R
WAUKEGAN       SUNNY     74  60  61 VRB3      29.99R
DUPAGE AIRPORT SUNNY     73  57  57 W6        30.00R
WHEELING       SUNNY     75  57  53 CALM      30.01R
NORTHERLY IS     N/A     70  60  70 E5          N/A
$$

WIZ051-052-058>065-066-070>072-041600-
SOUTHEAST WISCONSIN

CITY           SKY/WX    TMP DP  RH WIND       PRES   REMARKS
MILWAUKEE      PTSUNNY   75  58  55 W8        29.98S
KENOSHA*       SUNNY     74  59  59 NW5       29.99S
RACINE*        SUNNY     74  58  57 W6        30.00S
WAUKESHA       SUNNY     70  57  64 W7        30.00S
$$

INZ001>003-010>013-019-020-041600-
NORTHWEST INDIANA

CITY           SKY/WX    TMP DP  RH WIND       PRES   REMARKS
GARY*          SUNNY    N/A N/A N/A CALM      30.01R
MICHIGAN CITY* NOT AVBL
RENSSELAER*    NOT AVBL
$$

LMZ740>746-041600-
SOUTHERN LAKE MICHIGAN

STATION/POSITION TIME  SKY/WX   TEMP WIND        PRES    VSBY
                                AIR  DIR/SP/G
                 (UTC)          (F)  (DEG/KT/KT) (MB)    (MI)
HARRISON CRIB    1400            69  310/  2/  2   N/A
BURNHAM HARBOR   1500            71  110/  3/  4   N/A
CALUMET HARBOR   1400            73   CALM  /  2   N/A
BURNS HARBOR     1400            68  240/  2/  4 1016.6R
MICHIGAN CITY    1400            65  210/  3/  4   N/A
$$

ABBREVIATIONS USED IN REMARKS
   TC - TEMPERATURE IN CELSIUS
  WCI - WIND CHILL INDEX
   HX - HEAT INDEX
  VSB - VISIBILITY
$$


USA.gov is the U.S. government's official web portal to all federal, state and local government web resources and services.